Theta_e
334 325 320 327 335 337 337 338 335 332 332 332 329 325 324 324 326 329 330 330 332 333 330 325 328 326 318 318 319 319 313 312 312 312 312 312 314 315 319 325 328 321 321
334 325 322 326 333 338 337 338 336 334 334 332 329 325 323 324 327 328 328 331 330 332 324 324 326 319 317 321 318 314 313 314 315 315 315 315 315 316 321 328 326 314 314
335 326 324 323 331 337 338 339 337 335 335 333 329 325 323 323 326 326 328 329 328 330 323 322 318 316 320 317 315 316 317 317 318 325 329 327 316 316 317 318 316 315 315
335 328 326 323 323 332 338 339 337 336 336 333 329 326 324 322 323 324 326 328 327 326 321 318 315 320 317 316 315 316 316 319 330 334 335 331 321 317 317 317 317 317 317
335 334 329 327 322 322 334 338 337 337 337 333 330 326 324 324 325 325 325 326 326 324 320 317 317 318 317 317 317 316 316 320 329 332 333 334 333 318 318 318 318 318 319
335 335 329 329 326 322 324 335 335 336 337 333 330 326 325 323 327 326 325 325 322 322 319 318 318 318 317 318 318 318 318 326 329 329 331 332 334 318 318 318 319 319 319
337 338 329 329 329 325 323 325 332 333 334 331 328 325 325 321 322 323 322 322 320 321 320 320 319 319 319 319 318 318 319 330 333 330 330 333 322 319 319 319 319 319 319
339 342 331 330 329 327 325 323 325 329 328 327 326 323 322 319 319 321 321 320 319 320 320 321 319 319 318 318 318 318 319 329 332 332 332 334 321 320 320 320 320 319 319
341 342 332 331 330 328 326 325 323 325 326 325 325 321 321 319 319 319 320 319 319 319 320 319 319 319 319 319 318 318 319 325 334 333 333 334 321 320 320 320 320 320 320
344 344 336 332 330 329 327 325 324 325 325 324 325 321 321 319 319 319 319 319 319 319 319 319 320 320 320 320 318 321 327 333 338 337 338 338 327 324 323 321 321 321 321
344 345 343 339 333 330 330 326 325 325 326 325 326 323 321 319 319 319 319 319 319 319 320 321 323 324 324 322 320 324 330 334 337 337 337 336 332 331 329 327 325 324 324
343 344 344 343 341 337 339 337 326 325 326 326 326 326 321 330 326 331 324 319 319 319 320 323 325 325 325 328 323 324 328 335 338 337 337 336 333 333 333 332 332 330 329
340 343 344 344 343 342 339 340 336 337 336 335 337 334 330 333 335 335 334 321 319 319 320 322 325 326 326 331 332 330 330 335 337 337 337 336 333 333 334 334 333 332 332
336 340 342 343 344 343 340 339 338 337 336 336 337 338 336 335 336 335 335 333 321 323 321 325 328 325 332 334 334 333 334 335 336 336 337 337 334 334 333 332 333 333 332
337 336 340 342 343 343 342 339 338 336 336 335 336 338 338 337 337 336 334 334 331 331 327 330 331 332 332 333 333 334 335 336 337 337 337 337 336 334 333 332 332 331 331
340 337 339 341 342 343 342 340 339 338 337 336 335 337 339 338 337 336 334 334 333 332 332 330 331 330 331 331 332 332 333 333 334 335 336 336 335 332 330 329 327 328 328
339 339 338 341 342 343 344 342 340 339 338 337 336 335 338 338 337 336 335 335 334 334 333 332 332 332 332 332 332 332 332 330 330 331 332 334 335 334 332 329 328 327 327
328 338 338 338 340 342 342 342 341 340 339 338 337 336 336 338 338 337 336 335 334 333 333 333 333 332 332 332 332 332 332 332 331 331 330 330 330 331 332 332 330 327 324
324 331 337 338 339 340 342 342 341 340 340 339 338 337 336 337 335 336 337 335 334 333 332 332 332 331 331 331 331 332 332 332 332 332 331 331 331 329 329 331 331 329 322
322 325 331 334 337 339 340 341 340 340 339 339 338 337 337 336 337 330 331 335 333 333 332 332 331 330 331 330 330 329 329 330 330 330 331 331 330 330 330 329 327 323 321
319 321 322 327 333 336 338 338 339 340 339 338 338 337 337 337 336 335 330 326 331 332 331 331 331 329 331 331 330 329 329 329 328 328 329 329 329 329 330 330 329 329 331
315 317 319 321 323 330 331 335 337 339 339 338 337 337 337 337 337 336 330 330 329 327 330 330 331 331 331 331 331 330 330 330 329 328 329 329 328 330 332 332 332 333 333
314 314 315 315 318 320 326 333 336 338 337 338 336 337 336 336 337 337 335 332 328 331 328 324 326 330 329 331 330 331 330 330 329 330 331 332 336 335 334 333 333 334 332
313 313 312 311 311 314 323 324 332 334 337 338 337 337 337 336 335 336 337 336 334 330 328 325 320 322 326 328 331 329 329 329 336 332 332 334 335 334 333 334 336 335 334
311 311 311 312 311 311 312 319 323 329 335 337 338 338 337 337 336 336 337 337 336 335 331 330 328 328 325 324 325 330 332 334 329 331 334 329 331 335 335 336 336 334 335
311 310 308 308 309 310 311 311 312 318 325 333 337 338 338 339 337 336 337 337 337 336 336 332 332 329 328 326 325 327 329 334 335 335 335 334 334 331 332 336 339 339 340
Wind_Speed
16 18 19 21 18 20 22 20 17 16 15 14 13 12 13 15 17 17 16 14 11 11 12 12 13 13 15 17 18 17 17 19 20 19 19 19 20 20 21 20 14 13 15
20 20 20 21 19 20 22 20 18 16 15 13 13 13 13 15 16 15 14 11 9 11 12 13 14 14 15 18 18 18 20 20 21 20 19 18 18 17 18 18 15 14 13
20 22 20 20 19 19 21 19 18 17 15 13 13 13 13 15 15 14 12 10 9 10 12 14 15 16 17 18 18 19 20 20 20 22 21 13 15 15 14 14 13 13 13
20 22 20 19 19 18 20 20 18 16 14 13 12 12 12 14 14 13 11 9 8 10 13 15 16 17 18 19 19 19 19 19 21 20 16 8 10 12 13 12 12 12 11
19 20 19 18 18 18 19 19 17 16 14 13 12 12 12 13 13 12 10 8 8 12 14 17 18 18 18 18 18 18 17 18 19 16 9 8 7 10 10 10 10 9 10
20 18 19 18 18 17 17 19 17 16 15 13 13 12 13 12 12 11 11 9 10 13 14 15 17 17 16 15 14 14 15 17 16 9 6 11 8 8 9 8 9 8 8
18 17 19 18 17 17 17 17 17 16 15 14 13 13 13 13 13 12 11 10 11 13 14 15 15 15 15 14 13 13 14 16 10 5 5 5 5 6 6 7 6 6 6
17 14 20 18 17 17 17 16 16 16 15 15 14 13 14 13 13 13 12 12 12 13 14 15 16 15 14 13 12 11 12 14 11 6 4 4 3 4 5 5 5 5 4
16 15 20 19 17 16 16 16 15 15 15 14 14 14 14 14 13 14 14 13 13 13 14 14 14 13 12 10 10 9 9 11 12 4 5 3 3 4 5 5 5 4 4
17 15 18 21 19 18 17 17 16 15 15 14 14 14 15 14 14 14 15 14 14 14 14 14 14 12 12 10 9 10 10 12 7 5 4 9 5 3 4 4 4 4 4
15 16 17 19 21 20 18 18 17 17 16 16 15 15 16 15 16 16 16 16 16 16 16 15 14 12 11 11 10 11 11 7 4 5 5 12 7 6 5 5 5 5 4
16 18 18 19 18 19 16 17 19 19 19 18 18 18 17 14 15 14 16 17 18 17 18 18 16 15 12 10 10 13 13 6 8 7 9 14 11 9 8 7 6 6 6
16 17 19 20 21 20 17 16 18 16 16 17 17 18 17 14 14 15 15 20 20 20 20 20 19 18 16 11 11 12 12 10 10 9 13 16 13 12 12 11 10 9 8
17 18 18 19 20 21 18 18 17 17 18 17 18 19 17 17 16 16 16 16 21 21 21 20 19 20 16 16 15 15 16 14 12 11 15 18 16 14 13 13 13 13 12
16 17 18 19 21 20 22 19 19 19 19 18 19 21 21 19 18 18 18 16 17 17 20 18 19 18 19 18 18 18 17 17 17 15 14 19 20 19 17 16 16 16 17
13 17 18 19 21 21 22 22 20 21 21 21 20 21 24 21 20 19 19 19 19 19 19 20 19 19 19 19 20 21 20 19 19 19 18 18 22 21 22 21 20 20 20
8 15 16 18 20 21 22 23 22 20 21 21 22 24 24 25 24 22 21 21 21 21 22 21 22 21 20 20 21 20 21 23 22 22 22 22 20 25 24 23 24 25 24
13 9 15 18 18 22 22 22 22 22 22 22 22 23 26 26 27 25 23 23 22 22 21 23 22 22 22 21 21 21 21 21 23 24 23 24 23 22 23 26 27 26 27
20 12 4 14 18 18 20 23 24 24 24 23 23 24 26 27 29 30 25 25 25 24 25 24 25 24 23 23 23 23 22 22 23 22 24 26 27 28 27 24 29 31 31
26 21 10 4 10 17 19 22 24 25 26 26 26 27 28 28 30 34 32 29 28 26 27 27 26 26 26 24 22 23 26 25 25 26 26 26 26 29 31 31 29 30 29
34 31 27 17 6 5 16 22 26 27 28 28 28 30 31 33 32 34 36 37 35 32 31 29 30 30 27 26 24 26 27 27 31 32 28 28 28 28 29 30 32 30 26
33 33 32 29 21 11 11 15 26 29 29 29 30 31 33 33 36 36 38 38 38 38 35 36 32 31 29 28 27 24 25 26 30 31 28 28 32 33 29 29 31 30 30
32 33 32 34 32 23 16 15 16 24 31 33 31 31 32 36 40 40 38 39 41 38 40 41 41 37 35 29 30 26 17 22 23 22 26 24 24 26 27 27 29 29 26
28 28 29 32 36 40 31 14 19 19 22 29 31 32 32 32 36 41 41 41 41 42 44 45 44 43 41 37 27 33 37 27 12 16 17 21 24 22 24 24 21 25 28
24 24 25 26 33 38 41 38 23 20 22 26 32 32 32 32 33 37 40 41 43 44 45 44 43 41 42 44 42 32 31 33 35 35 30 30 25 25 26 26 24 24 25
22 24 26 27 28 32 34 39 43 33 23 23 28 24 27 28 33 36 38 41 43 46 45 46 45 45 46 47 45 40 37 32 28 26 29 32 32 33 31 26 25 25 25
Wind_Direction
153 159 157 156 160 160 161 162 159 157 151 138 135 134 134 133 132 132 131 130 127 120 123 121 125 118 117 119 118 114 110 108 108 107 106 106 104 103 105 96 90 120 111
156 159 156 156 158 163 163 167 166 166 157 147 144 140 138 141 142 139 138 133 121 124 120 119 121 117 112 113 111 109 109 106 103 101 100 102 105 105 108 117 140 111 107
153 159 155 156 157 165 168 173 173 171 164 157 153 145 146 150 152 150 147 141 127 127 122 119 121 120 117 115 113 113 112 108 104 96 80 93 103 107 110 115 107 103 106
152 160 158 155 156 164 171 177 179 176 172 164 159 155 154 155 159 160 159 153 137 136 132 127 126 124 120 119 119 117 115 109 94 85 84 101 105 108 110 107 106 104 102
151 156 162 158 156 163 173 180 184 182 179 174 171 167 165 163 164 168 168 165 153 147 143 139 137 133 130 127 125 124 121 114 98 89 132 118 116 112 111 113 108 108 111
152 156 165 164 158 162 172 183 187 187 186 185 180 177 173 172 169 172 173 168 159 154 149 143 139 135 130 128 127 125 118 101 95 98 142 128 165 132 129 126 122 121 112
154 173 173 173 166 165 170 183 189 190 192 192 186 183 181 179 178 176 173 168 163 158 153 145 140 138 139 141 140 137 134 119 110 156 137 134 166 139 136 129 124 119 113
158 172 179 180 177 173 174 179 190 196 195 192 190 189 187 183 181 182 176 170 167 164 160 156 154 152 153 155 156 153 149 129 98 157 145 162 165 150 146 141 137 135 132
164 169 181 184 187 184 182 186 193 199 197 195 194 192 189 185 184 182 180 177 176 173 170 167 164 163 165 166 168 165 157 148 121 182 161 219 184 165 160 153 152 153 150
168 173 184 189 192 192 192 192 195 200 202 202 200 195 192 190 190 189 185 185 185 184 182 179 179 180 184 185 184 176 165 145 114 204 177 224 235 195 181 177 174 172 172
178 181 183 187 196 197 198 200 199 203 207 208 207 203 197 197 196 198 195 193 194 193 192 191 194 197 202 207 201 192 187 167 243 205 219 247 237 226 214 207 204 203 202
192 190 191 188 192 197 191 205 204 208 210 211 211 209 205 197 206 208 212 202 203 202 201 202 205 208 209 213 227 215 208 217 232 227 238 256 243 237 235 233 230 227 228
209 204 200 195 193 194 192 204 201 204 207 213 213 218 199 207 213 206 218 213 209 209 209 212 215 217 217 213 230 252 235 238 233 240 247 263 246 240 242 241 241 241 243
216 213 208 208 204 199 198 204 206 207 209 211 215 217 202 207 215 213 215 220 215 217 214 221 222 227 228 234 226 231 234 231 235 242 251 266 248 246 247 248 250 254 257
224 220 218 213 210 211 200 211 208 209 217 215 215 218 213 215 217 218 215 221 219 216 221 218 223 231 231 232 237 238 238 241 239 237 239 262 263 254 253 255 257 259 261
235 227 223 219 221 215 213 208 218 216 216 215 220 219 222 216 221 222 218 220 222 221 226 224 228 228 236 235 242 240 242 243 248 248 249 259 272 267 260 261 264 266 267
266 239 232 228 223 226 226 221 219 223 224 226 218 225 222 222 221 223 224 224 223 227 224 229 229 232 232 239 239 243 251 248 246 246 250 252 256 271 273 271 271 270 271
15 265 240 237 233 233 227 232 231 231 231 230 233 226 230 223 221 230 225 229 227 226 232 229 231 231 236 235 240 243 246 248 250 254 255 253 254 255 266 274 276 275 271
14 28 285 247 243 244 242 236 239 237 236 237 236 237 236 231 226 221 232 229 231 228 229 234 232 232 236 239 241 245 246 246 250 254 256 257 259 259 254 256 265 272 278
30 26 35 16 250 255 248 247 246 245 245 239 237 236 237 237 236 227 226 231 229 231 230 232 232 235 235 237 245 247 250 250 252 251 252 254 257 261 265 269 269 272 276
35 31 23 8 326 285 258 254 251 249 249 250 245 240 237 236 237 239 231 232 229 228 230 232 233 232 234 240 241 247 247 250 253 248 248 254 256 260 267 270 273 271 265
35 34 29 22 8 326 313 285 263 256 255 255 255 251 241 241 240 240 244 230 234 232 230 230 229 232 239 232 239 246 255 261 262 270 276 273 264 253 253 261 267 263 264
36 34 31 29 23 4 295 276 268 261 260 258 254 254 255 239 241 243 239 245 234 234 234 239 236 231 230 236 234 233 247 248 261 260 261 261 262 256 258 252 248 253 258
34 34 35 31 29 26 12 322 274 292 278 262 258 256 258 257 252 247 246 240 245 234 238 239 246 243 238 234 235 241 239 242 278 269 256 255 264 263 251 249 242 256 262
28 26 24 24 22 23 22 20 359 297 281 259 272 265 263 257 253 251 247 246 241 244 237 241 236 242 241 242 236 230 238 247 249 254 265 263 258 264 269 275 269 261 252
20 22 19 20 17 15 16 13 16 14 342 298 261 266 267 267 257 252 250 248 247 245 243 239 241 236 242 244 244 234 232 237 241 241 249 259 260 259 252 258 267 276 278